Location: Newark
(43.4600°N, 5.2486°E)
Time: 23:23:41
(UTC+00:00)

N. Korean satellite - Visible Passes

Search period start: 09 December 2019 00:00
Search period end: 19 December 2019 00:00
Orbit: 456 x 506 km, 97.2° (Epoch: 09 December)

Date Brightness Start Highest point End Pass type
(mag) Time Alt. Az. Time Alt. Az. Time Alt. Az.
09 Dec 6.7 05:28:14 10° NNE 05:31:47 72° E 05:35:15 10° S visible
09 Dec 9.7 17:38:49 10° SW 17:41:24 18° W 17:43:59 10° NW visible
10 Dec 8.4 05:03:04 10° NNE 05:06:17 32° E 05:09:26 10° SSE visible
10 Dec 8.5 17:12:24 10° SSW 17:15:50 35° W 17:19:15 10° NNW visible
11 Dec 9.6 04:38:27 10° NE 04:40:41 16° E 04:42:55 10° SE visible
11 Dec 7.3 06:11:02 10° N 06:14:10 30° WNW 06:17:15 10° SW visible
11 Dec 6.9 16:46:39 10° S 16:50:21 75° WSW 16:54:03 10° NNW visible
12 Dec 6.4 05:45:20 10° N 05:48:50 66° WNW 05:52:16 10° SSW visible
12 Dec 10.2 17:57:27 10° WSW 17:58:37 11° W 17:59:47 10° WNW visible
13 Dec 7.2 05:19:56 10° NNE 05:23:24 54° E 05:26:47 10° S visible
13 Dec 9.4 17:30:04 10° SSW 17:32:59 22° W 17:35:54 10° NW visible
14 Dec 8.8 04:54:54 10° NE 04:57:52 25° E 05:00:46 10° SSE visible
14 Dec 7.9 06:28:32 10° NNW 06:31:06 19° WNW 06:33:38 10° WSW visible
14 Dec 8.0 17:03:54 10° S 17:07:27 44° W 17:10:59 10° NNW visible
15 Dec 9.9 04:30:38 10° ENE 04:32:13 13° E 04:33:48 10° ESE visible
15 Dec 6.9 06:02:32 10° N 06:05:49 38° WNW 06:09:02 10° SW visible
15 Dec 6.6 16:38:18 10° SSE 16:41:59 86° ENE 16:45:40 10° N visible
16 Dec 6.3 05:36:56 10° N 05:40:26 85° WNW 05:43:52 10° SSW visible
16 Dec 9.9 17:48:12 10° SW 17:50:10 14° W 17:52:08 10° WNW visible
17 Dec 7.8 05:11:38 10° NNE 05:14:58 41° E 05:18:14 10° S visible
17 Dec 9.0 17:21:24 10° SSW 17:24:34 27° W 17:27:43 10° NW visible
18 Dec 9.2 04:46:45 10° NE 04:49:24 20° E 04:52:00 10° SE visible
18 Dec 7.6 06:19:55 10° NNW 06:22:45 23° WNW 06:25:33 10° SW visible
18 Dec 7.4 16:55:26 10° S 16:59:03 56° W 17:02:39 10° NNW visible
